Khartoum, Sudan

4:13 PM EAT on August 23, 2017 (GMT +0300)
Khartoum

Weather History for HSSS - July, 2013

Change the Weather History Date:

Tuesday, July 30, 2013

  Actual Average Record
Temperature  
Mean Temperature 90 °F -  
Max Temperature 99 °F 92 °F 109 °F (2017)
Min Temperature 82 °F 80 °F 48 °F (2008)
Cooling Degree Days 26    
Growing Degree Days 40 (Base 50)    
Moisture  
Dew Point 64 °F    
Average Humidity 43    
Maximum Humidity 66    
Minimum Humidity 21    
Precipitation  
Precipitation 0.00 in 0.10 in - ()
Sea Level Pressure  
Sea Level Pressure 29.84 in    
Wind  
Wind Speed 8 mph ()    
Max Wind Speed 13 mph    
Max Gust Speed -    
Visibility 6.9 miles    
Events      
Averages and records for this station are not official NWS values.
T = Trace of Precipitation, MM = Missing Value Source: Averaged Metar Reports

Daily Weather History Graph

Daily Weather History Graph

Search for Another Location

Airport or City:

Trip Planner

Search our weather history database for the weather conditions in past years. The results will help you decide how hot, cold, wet, or windy it might be!

Date:

Astronomy

Jul. 30, 2013 Rise Set
Actual Time 6:31 AM EAT 7:21 PM EAT
Civil Twilight 6:08 AM EAT 7:43 PM EAT
Nautical Twilight 5:41 AM EAT 8:10 PM EAT
Astronomical Twilight 5:13 AM EAT 8:38 PM EAT
Moon 12:27 AM EAT (7/30) 1:26 PM EAT (7/30)
Length of Visible Light 13h 35m
Length of Day
12h 49m
Last Quarter, 44% of the Moon is Illuminated
Jul 30
Last Quarter
Aug 7
New
Aug 14
First Quarter
Aug 21
Full
Aug 28
Last Quarter

Hourly Weather History & Observations

Time (EAT) Temp. Heat Index Dew Point Humidity Pressure Visibility Wind Dir Wind Speed Gust Speed Precip Events Conditions
12:00 AM 89.6 °F 91.1 °F 64.4 °F 43% 29.89 in - SE 5.8 mph - N/A   Clear
12:30 AM - - - N/A% 29.89 in - SE 8.1 mph - N/A   Clear
1:00 AM 87.8 °F 88.5 °F 62.6 °F 43% 29.86 in - SSE 9.2 mph - N/A   Clear
1:30 AM - - - N/A% 29.86 in - SSE 9.2 mph - N/A   Clear
2:00 AM 86.0 °F 87.3 °F 64.4 °F 48% 29.86 in - SSE 11.5 mph - N/A   Clear
2:30 AM - - - N/A% 29.86 in - SSE 12.7 mph - N/A   Clear
3:00 AM 84 °F - 66 °F 46% 29.78 in 12 mi SSE 11.5 mph - -   Clear
3:00 AM 84.2 °F 86.6 °F 66.2 °F 55% 29.86 in - SSE 11.5 mph - N/A   Clear
3:30 AM - - - N/A% 29.86 in - South 5.8 mph - N/A   Clear
4:00 AM 84.2 °F 87.3 °F 68.0 °F 58% 29.86 in - SSE 8.1 mph - N/A   Clear
4:30 AM - - - N/A% 29.86 in - SSE 9.2 mph - N/A   Clear
5:00 AM 84.2 °F 88.4 °F 69.8 °F 62% 29.86 in - SSE 8.1 mph - N/A   Clear
5:30 AM - - - N/A% 29.86 in - South 8.1 mph - N/A   Clear
6:00 AM 82.4 °F 85.4 °F 68.0 °F 62% 29.89 in - South 9.2 mph - N/A   Clear
6:30 AM - - - N/A% 29.86 in - South 9.2 mph - N/A   Clear
7:00 AM 82.4 °F 85.4 °F 68.0 °F 62% 29.89 in - South 6.9 mph - N/A   Clear
7:30 AM - - - N/A% 29.89 in - South 9.2 mph - N/A   Clear
8:00 AM 82.4 °F 86.3 °F 69.8 °F 66% 29.89 in - South 9.2 mph - N/A   Clear
8:30 AM - - - N/A% 29.92 in - South 9.2 mph - N/A   Clear
9:00 AM 86.0 °F 90.4 °F 69.8 °F 58% 29.92 in - SW 12.7 mph - N/A   Clear
9:30 AM - - - N/A% 29.92 in - SSW 11.5 mph - N/A   Clear
10:00 AM 89.6 °F 93.4 °F 68.0 °F 49% 29.89 in - SSW 12.7 mph - N/A   Clear
10:30 AM - - - N/A% 29.89 in - SSW 11.5 mph - N/A   Clear
11:00 AM 89.6 °F 91.1 °F 64.4 °F 43% 29.89 in - SSW 11.5 mph - N/A   Clear
11:30 AM - - - N/A% 29.89 in 6.2 mi South 12.7 mph - N/A   Partly Cloudy
12:00 PM 91.4 °F 93.2 °F 64.4 °F 41% 29.89 in 6.2 mi South 11.5 mph - N/A   Partly Cloudy
12:30 PM - - - N/A% 29.86 in 6.2 mi South 11.5 mph - N/A   Partly Cloudy
1:00 PM 95.0 °F 98.5 °F 66.2 °F 39% 29.86 in 6.2 mi SSW 11.5 mph - N/A   Partly Cloudy
1:30 PM - - - N/A% 29.86 in 6.2 mi South 11.5 mph - N/A   Unknown
2:00 PM 96.8 °F 97.1 °F 60.8 °F 30% 29.83 in 6.2 mi South 8.1 mph - N/A   Scattered Clouds
2:30 PM - - - N/A% 29.83 in 6.2 mi South 11.5 mph - N/A   Scattered Clouds
3:00 PM 98.6 °F 98.5 °F 59.0 °F 27% 29.80 in 6.2 mi SW 8.1 mph - N/A   Scattered Clouds
4:00 PM 98.6 °F 98.5 °F 59.0 °F 27% 29.80 in 6.2 mi SW 8.1 mph - N/A   Scattered Clouds
4:30 PM - - - N/A% 29.80 in 6.2 mi South 8.1 mph - N/A   Unknown
5:00 PM - - - N/A% 29.77 in 6.2 mi WSW 10.4 mph - N/A   Scattered Clouds
5:30 PM - - - N/A% 29.77 in 6.2 mi South 9.2 mph - N/A   Scattered Clouds
6:00 PM 96.8 °F 95.8 °F 57.2 °F 27% 29.74 in 6.2 mi South 9.2 mph - N/A   Partly Cloudy
6:30 PM - - - N/A% 29.74 in 6.2 mi SSW 9.2 mph - N/A   Partly Cloudy
7:00 PM 96.8 °F 95.8 °F 57.2 °F 27% 29.77 in - WSW 10.4 mph - N/A   Clear
7:30 PM - - - N/A% 29.77 in - SSW 6.9 mph - N/A   Clear
8:00 PM 96.8 °F 95.8 °F 57.2 °F 27% 29.77 in - SSW 6.9 mph - N/A   Clear
8:30 PM - - - N/A% 29.80 in - South 3.5 mph - N/A   Clear
9:00 PM 95 °F - 59 °F 21% 29.71 in 12 mi South 5.8 mph - -   Clear
9:00 PM 95.0 °F 94.4 °F 59.0 °F 30% - - South 5.8 mph - N/A   Clear
9:30 PM - - - N/A% 29.80 in - South 5.8 mph - N/A   Clear
10:00 PM 95.0 °F 94.4 °F 59.0 °F 30% 29.83 in - South 5.8 mph - N/A   Clear
10:30 PM - - - N/A% 29.83 in - SSE 5.8 mph - N/A   Clear